| time (UTC) | temp F | wind direction | speed MPH | gust MPH | rain 1hr in | rain 24hr in | rain mn in | humidity % | barometer mb |
| 20260503233545 | 55 | 94 | 1.0 | 8.0 | 0.00 | 0.00 | 0.00 | 38 | 1013.4 |
| 20260503233041 | 55 | 94 | 0.0 | 2.0 | 0.00 | 0.00 | 0.00 | 38 | 1013.1 |
| 20260503232538 | 56 | 251 | 2.0 | 5.0 | 0.00 | 0.00 | 0.00 | 38 | 1013.1 |
| 20260503232036 | 56 | 10 | 1.0 | 2.0 | 0.00 | 0.00 | 0.00 | 37 | 1013.0 |
| 20260503231533 | 56 | 30 | 3.0 | 6.0 | 0.00 | 0.00 | 0.00 | 36 | 1013.3 |
| 20260503231030 | 56 | 62 | 2.0 | 6.0 | 0.00 | 0.00 | 0.00 | 37 | 1013.1 |
| 20260503230526 | 56 | 67 | 1.0 | 5.0 | 0.00 | 0.00 | 0.00 | 36 | 1013.0 |
| 20260503230024 | 56 | 53 | 3.0 | 3.0 | 0.00 | 0.00 | 0.00 | 36 | 1012.9 |
| 20260503225521 | 57 | 54 | 3.0 | 3.0 | 0.00 | 0.00 | 0.00 | 37 | 1012.8 |
| 20260503225016 | 57 | 85 | 1.0 | 2.0 | 0.00 | 0.00 | 0.00 | 36 | 1012.9 |
| 20260503224514 | 57 | 82 | 3.0 | 5.0 | 0.00 | 0.00 | 0.00 | 35 | 1012.7 |
| 20260503224011 | 57 | 47 | 1.0 | 3.0 | 0.00 | 0.00 | 0.00 | 36 | 1012.7 |
| 20260503223509 | 57 | 65 | 1.0 | 3.0 | 0.00 | 0.00 | 0.00 | 35 | 1012.6 |
| 20260503223004 | 56 | 50 | 2.0 | 2.0 | 0.00 | 0.00 | 0.00 | 35 | 1012.8 |
| 20260503222503 | 56 | 86 | 1.0 | 5.0 | 0.00 | 0.00 | 0.00 | 34 | 1012.7 |
| 20260503222000 | 57 | 182 | 1.0 | 3.0 | 0.00 | 0.00 | 0.00 | 34 | 1013.0 |
| 20260503221458 | 57 | 49 | 2.0 | 3.0 | 0.00 | 0.00 | 0.00 | 34 | 1012.6 |
| 20260503220955 | 57 | 105 | 2.0 | 5.0 | 0.00 | 0.00 | 0.00 | 34 | 1012.7 |
| 20260503220452 | 57 | 60 | 1.0 | 6.0 | 0.00 | 0.00 | 0.00 | 33 | 1012.9 |
| 20260503215949 | 57 | 92 | 1.0 | 5.0 | 0.00 | 0.00 | 0.00 | 34 | 1012.8 |
| 20260503215445 | 58 | 351 | 2.0 | 10.0 | 0.00 | 0.00 | 0.00 | 33 | 1012.9 |
| 20260503214943 | 59 | 133 | 3.0 | 5.0 | 0.00 | 0.00 | 0.00 | 34 | 1012.8 |
| 20260503214441 | 59 | 78 | 1.0 | 6.0 | 0.00 | 0.00 | 0.00 | 33 | 1012.7 |
| 20260503213938 | 59 | 35 | 3.0 | 6.0 | 0.00 | 0.00 | 0.00 | 33 | 1012.8 |
| 20260503213436 | 58 | 323 | 2.0 | 3.0 | 0.00 | 0.00 | 0.00 | 33 | 1012.8 |
| 20260503212932 | 58 | 324 | 4.0 | 13.0 | 0.00 | 0.00 | 0.00 | 33 | 1012.4 |
| 20260503212430 | 58 | 350 | 3.0 | 9.0 | 0.00 | 0.00 | 0.00 | 34 | 1012.5 |
| 20260503211927 | 58 | 349 | 2.0 | 6.0 | 0.00 | 0.00 | 0.00 | 34 | 1012.7 |
| 20260503211424 | 58 | 119 | 3.0 | 11.0 | 0.00 | 0.00 | 0.00 | 34 | 1012.5 |
| 20260503210919 | 58 | 75 | 3.0 | 5.0 | 0.00 | 0.00 | 0.00 | 34 | 1012.6 |
| 20260503210416 | 58 | 312 | 2.0 | 8.0 | 0.00 | 0.00 | 0.00 | 34 | 1012.5 |
| 20260503205910 | 60 | 331 | 7.0 | 10.0 | 0.00 | 0.00 | 0.00 | 34 | 1012.4 |
| 20260503205408 | 58 | 93 | 1.0 | 3.0 | 0.00 | 0.00 | 0.00 | 36 | 1012.3 |
| 20260503204904 | 58 | 26 | 3.0 | 6.0 | 0.00 | 0.00 | 0.00 | 35 | 1012.7 |
| 20260503204401 | 58 | 32 | 3.0 | 8.0 | 0.00 | 0.00 | 0.00 | 36 | 1012.5 |
| 20260503203859 | 58 | 0 | 3.0 | 7.0 | 0.00 | 0.00 | 0.00 | 35 | 1012.4 |
| 20260503203356 | 58 | 37 | 3.0 | 5.0 | 0.00 | 0.00 | 0.00 | 35 | 1012.8 |
| 20260503202852 | 57 | 42 | 7.0 | 9.0 | 0.00 | 0.00 | 0.00 | 35 | 1012.5 |
| 20260503202351 | 57 | 309 | 3.0 | 6.0 | 0.00 | 0.00 | 0.00 | 35 | 1012.6 |
| 20260503201849 | 57 | 337 | 3.0 | 16.0 | 0.00 | 0.00 | 0.00 | 36 | 1012.7 |
| 20260503201345 | 57 | 111 | 2.0 | 7.0 | 0.00 | 0.00 | 0.00 | 36 | 1012.7 |
| 20260503200843 | 57 | 12 | 4.0 | 8.0 | 0.00 | 0.00 | 0.00 | 37 | 1012.7 |
| 20260503200339 | 57 | 32 | 5.0 | 13.0 | 0.00 | 0.00 | 0.00 | 37 | 1012.9 |
| 20260503195836 | 57 | 310 | 5.0 | 8.0 | 0.00 | 0.00 | 0.00 | 37 | 1012.7 |
| 20260503195332 | 57 | 38 | 3.0 | 7.0 | 0.00 | 0.00 | 0.00 | 38 | 1012.8 |
| 20260503194830 | 58 | 60 | 3.0 | 6.0 | 0.00 | 0.00 | 0.00 | 38 | 1012.9 |
| 20260503194326 | 57 | 348 | 3.0 | 8.0 | 0.00 | 0.00 | 0.00 | 38 | 1012.8 |
| 20260503193822 | 57 | 301 | 2.0 | 6.0 | 0.00 | 0.00 | 0.00 | 40 | 1012.7 |
| 20260503193318 | 56 | 70 | 1.0 | 6.0 | 0.00 | 0.00 | 0.00 | 39 | 1013.0 |
| 20260503192814 | 56 | 46 | 3.0 | 7.0 | 0.00 | 0.00 | 0.00 | 41 | 1012.9 |
| 20260503192310 | 55 | 39 | 2.0 | 6.0 | 0.00 | 0.00 | 0.00 | 40 | 1013.0 |
| 20260503191806 | 56 | 320 | 2.0 | 9.0 | 0.00 | 0.00 | 0.00 | 40 | 1013.1 |
| 20260503191303 | 56 | 114 | 3.0 | 7.0 | 0.00 | 0.00 | 0.00 | 41 | 1012.9 |
| 20260503190800 | 55 | 21 | 3.0 | 5.0 | 0.00 | 0.00 | 0.00 | 42 | 1013.1 |
| 20260503190257 | 54 | 271 | 4.0 | 8.0 | 0.00 | 0.00 | 0.00 | 41 | 1013.1 |
| 20260503185754 | 55 | 334 | 5.0 | 10.0 | 0.00 | 0.00 | 0.00 | 42 | 1013.4 |
| 20260503185250 | 55 | 298 | 6.0 | 8.0 | 0.00 | 0.00 | 0.00 | 42 | 1013.5 |
| 20260503184744 | 56 | 49 | 4.0 | 9.0 | 0.00 | 0.00 | 0.00 | 42 | 1013.4 |
| 20260503184241 | 54 | 328 | 4.0 | 9.0 | 0.00 | 0.00 | 0.00 | 42 | 1013.3 |
| 20260503183737 | 55 | 40 | 4.0 | 10.0 | 0.00 | 0.00 | 0.00 | 42 | 1013.4 |
| 20260503183235 | 55 | 350 | 3.0 | 7.0 | 0.00 | 0.00 | 0.00 | 44 | 1013.4 |
| 20260503182732 | 55 | 10 | 6.0 | 9.0 | 0.00 | 0.00 | 0.00 | 43 | 1013.4 |
| 20260503182231 | 55 | 27 | 5.0 | 6.0 | 0.00 | 0.00 | 0.00 | 44 | 1013.6 |
| 20260503181728 | 53 | 107 | 3.0 | 7.0 | 0.00 | 0.00 | 0.00 | 44 | 1013.4 |
| 20260503181225 | 54 | 66 | 4.0 | 8.0 | 0.00 | 0.00 | 0.00 | 45 | 1013.6 |
| 20260503180721 | 54 | 102 | 3.0 | 11.0 | 0.00 | 0.00 | 0.00 | 43 | 1013.5 |
| 20260503180219 | 53 | 112 | 2.0 | 6.0 | 0.00 | 0.00 | 0.00 | 45 | 1013.5 |
| 20260503175716 | 55 | 86 | 5.0 | 8.0 | 0.00 | 0.00 | 0.00 | 45 | 1013.7 |
| 20260503175214 | 53 | 333 | 2.0 | 5.0 | 0.00 | 0.00 | 0.00 | 45 | 1013.6 |
| 20260503174709 | 53 | 291 | 3.0 | 7.0 | 0.00 | 0.00 | 0.00 | 45 | 1013.4 |
| 20260503174207 | 53 | 329 | 5.0 | 7.0 | 0.00 | 0.00 | 0.00 | 45 | 1013.6 |
| 20260503173707 | 52 | 39 | 3.0 | 7.0 | 0.00 | 0.00 | 0.00 | 45 | 1013.4 |
| 20260503173204 | 51 | 330 | 5.0 | 8.0 | 0.00 | 0.00 | 0.00 | 45 | 1013.7 |
| 20260503172701 | 53 | 32 | 3.0 | 8.0 | 0.00 | 0.00 | 0.00 | 44 | 1013.6 |
| 20260503172158 | 53 | 91 | 5.0 | 8.0 | 0.00 | 0.00 | 0.00 | 43 | 1013.6 |
| 20260503171654 | 54 | 38 | 2.0 | 10.0 | 0.00 | 0.00 | 0.00 | 43 | 1013.7 |
| 20260503171152 | 53 | 107 | 3.0 | 10.0 | 0.00 | 0.00 | 0.00 | 42 | 1013.4 |
| 20260503170649 | 53 | 329 | 4.0 | 7.0 | 0.00 | 0.00 | 0.00 | 43 | 1013.6 |
| 20260503170145 | 53 | 344 | 5.0 | 9.0 | 0.00 | 0.00 | 0.00 | 43 | 1013.8 |
| 20260503160107 | 50 | 329 | 4.0 | 9.0 | 0.00 | 0.00 | 0.00 | 47 | 1013.7 |
| 20260503150537 | 48 | 54 | 3.0 | 5.0 | 0.00 | 0.00 | 0.00 | 54 | 1014.1 |
| 20260503130927 | 47 | 57 | 1.0 | 5.0 | 0.00 | 0.00 | 0.00 | 60 | 1014.1 |
| 20260503130424 | 46 | 36 | 4.0 | 9.0 | 0.00 | 0.00 | 0.00 | 60 | 1014.0 |
| 20260503110326 | 42 | 48 | 1.0 | 5.0 | 0.00 | 0.00 | 0.00 | 67 | 1013.9 |
| 20260503100252 | 41 | 36 | 2.0 | 5.0 | 0.00 | 0.00 | 0.00 | 69 | 1013.1 |
| 20260503090212 | 42 | 41 | 3.0 | 3.0 | 0.00 | 0.00 | 0.00 | 68 | 1012.8 |
| 20260503081139 | 42 | 83 | 0.0 | 2.0 | 0.00 | 0.00 | 0.00 | 67 | 1013.1 |
| 20260503080635 | 42 | 62 | 2.0 | 2.0 | 0.00 | 0.00 | 0.00 | 67 | 1013.2 |
| 20260503080132 | 42 | 54 | 2.0 | 2.0 | 0.00 | 0.00 | 0.00 | 67 | 1013.2 |
| 20260503072609 | 43 | 82 | 2.0 | 8.0 | 0.00 | 0.00 | 0.00 | 65 | 1013.0 |
| 20260503072106 | 43 | 69 | 1.0 | 5.0 | 0.00 | 0.00 | 0.00 | 64 | 1013.2 |
| 20260503071603 | 43 | 68 | 1.0 | 3.0 | 0.00 | 0.00 | 0.00 | 64 | 1013.0 |
| 20260503071059 | 44 | 79 | 1.0 | 6.0 | 0.00 | 0.00 | 0.00 | 63 | 1013.2 |
| 20260503070556 | 44 | 38 | 1.0 | 3.0 | 0.00 | 0.00 | 0.00 | 63 | 1013.0 |
| 20260503055015 | 46 | 49 | 2.0 | 5.0 | 0.00 | 0.00 | 0.00 | 59 | 1013.6 |
| 20260503054510 | 46 | 67 | 1.0 | 2.0 | 0.00 | 0.00 | 0.00 | 59 | 1013.7 |
| 20260503054008 | 46 | 34 | 4.0 | 6.0 | 0.00 | 0.00 | 0.00 | 59 | 1013.8 |
| 20260503053506 | 46 | 66 | 1.0 | 3.0 | 0.00 | 0.00 | 0.00 | 60 | 1013.8 |
| 20260503053003 | 46 | 107 | 1.0 | 3.0 | 0.00 | 0.00 | 0.00 | 60 | 1013.6 |
| 20260503052500 | 46 | 150 | 1.0 | 8.0 | 0.00 | 0.00 | 0.00 | 60 | 1013.6 |
| 20260503051956 | 46 | 40 | 3.0 | 5.0 | 0.00 | 0.00 | 0.00 | 61 | 1013.9 |
| 20260503051452 | 46 | 101 | 0.0 | 1.0 | 0.00 | 0.00 | 0.00 | 61 | 1013.9 |
| 20260503050950 | 46 | 91 | 0.0 | 2.0 | 0.00 | 0.00 | 0.00 | 61 | 1013.8 |
| 20260503050445 | 46 | 83 | 0.0 | 2.0 | 0.00 | 0.00 | 0.00 | 61 | 1013.8 |
| 20260503045943 | 46 | 107 | 0.0 | 1.0 | 0.00 | 0.00 | 0.00 | 61 | 1014.0 |
| 20260503045440 | 46 | 78 | 0.0 | 2.0 | 0.00 | 0.00 | 0.00 | 60 | 1014.1 |
| 20260503044937 | 46 | 98 | 0.0 | 0.0 | 0.00 | 0.00 | 0.00 | 60 | 1014.0 |
| 20260503044434 | 46 | 40 | 2.0 | 3.0 | 0.00 | 0.00 | 0.00 | 60 | 1014.0 |
| 20260503043931 | 47 | 88 | 0.0 | 2.0 | 0.00 | 0.00 | 0.00 | 59 | 1014.2 |
| 20260503043427 | 47 | 56 | 1.0 | 2.0 | 0.00 | 0.00 | 0.00 | 59 | 1013.9 |
| 20260503042924 | 47 | 88 | 1.0 | 1.0 | 0.00 | 0.00 | 0.00 | 60 | 1014.2 |
| 20260503042421 | 47 | 90 | 0.0 | 1.0 | 0.00 | 0.00 | 0.00 | 59 | 1014.4 |
| 20260503041917 | 47 | 91 | 0.0 | 1.0 | 0.00 | 0.00 | 0.00 | 59 | 1014.3 |
| 20260503041414 | 47 | 90 | 0.0 | 1.0 | 0.00 | 0.00 | 0.00 | 59 | 1014.3 |
| 20260503040912 | 47 | 111 | 1.0 | 2.0 | 0.00 | 0.00 | 0.00 | 58 | 1014.2 |
| 20260503040409 | 48 | 59 | 3.0 | 5.0 | 0.00 | 0.00 | 0.00 | 58 | 1014.1 |
| 20260503035906 | 48 | 141 | 2.0 | 3.0 | 0.00 | 0.05 | 0.05 | 58 | 1014.2 |
| 20260503035403 | 48 | 67 | 0.0 | 2.0 | 0.00 | 0.05 | 0.05 | 57 | 1014.1 |
| 20260503034900 | 48 | 72 | 2.0 | 5.0 | 0.00 | 0.05 | 0.05 | 57 | 1014.1 |
| 20260503034358 | 48 | 47 | 1.0 | 5.0 | 0.00 | 0.05 | 0.05 | 57 | 1014.1 |
| 20260503033854 | 48 | 93 | 1.0 | 3.0 | 0.00 | 0.05 | 0.05 | 57 | 1013.9 |
| 20260503033352 | 48 | 42 | 1.0 | 7.0 | 0.00 | 0.05 | 0.05 | 57 | 1013.9 |
| 20260503032850 | 48 | 82 | 2.0 | 7.0 | 0.00 | 0.05 | 0.05 | 57 | 1013.8 |
| 20260503032349 | 48 | 62 | 1.0 | 5.0 | 0.00 | 0.05 | 0.05 | 57 | 1013.9 |
| 20260503031846 | 49 | 95 | 0.0 | 2.0 | 0.00 | 0.05 | 0.05 | 57 | 1013.9 |
| 20260503031343 | 49 | 67 | 1.0 | 2.0 | 0.00 | 0.05 | 0.05 | 56 | 1014.0 |
| 20260503030839 | 49 | 56 | 1.0 | 3.0 | 0.00 | 0.05 | 0.05 | 56 | 1013.9 |
| 20260503030336 | 49 | 71 | 2.0 | 3.0 | 0.00 | 0.05 | 0.05 | 57 | 1013.6 |
| 20260503025833 | 49 | 53 | 2.0 | 2.0 | 0.00 | 0.05 | 0.05 | 57 | 1013.9 |
| 20260503025330 | 49 | 92 | 1.0 | 2.0 | 0.00 | 0.05 | 0.05 | 57 | 1014.1 |
| 20260503024827 | 49 | 72 | 1.0 | 1.0 | 0.00 | 0.05 | 0.05 | 56 | 1013.8 |
| 20260503024324 | 49 | 69 | 1.0 | 2.0 | 0.00 | 0.05 | 0.05 | 56 | 1013.8 |
| 20260503023821 | 49 | 53 | 2.0 | 2.0 | 0.00 | 0.05 | 0.05 | 56 | 1014.0 |
| 20260503023318 | 49 | 83 | 1.0 | 3.0 | 0.00 | 0.05 | 0.05 | 56 | 1014.0 |
| 20260503022815 | 50 | 75 | 0.0 | 2.0 | 0.00 | 0.05 | 0.05 | 55 | 1014.1 |
| 20260503022314 | 50 | 89 | 0.0 | 2.0 | 0.00 | 0.05 | 0.05 | 55 | 1013.8 |
| 20260503021811 | 50 | 67 | 1.0 | 2.0 | 0.00 | 0.05 | 0.05 | 55 | 1014.0 |
| 20260503021308 | 50 | 71 | 1.0 | 2.0 | 0.00 | 0.05 | 0.05 | 54 | 1014.0 |
| 20260503020805 | 50 | 96 | 0.0 | 1.0 | 0.00 | 0.05 | 0.05 | 54 | 1014.4 |
| 20260503020303 | 50 | 81 | 0.0 | 1.0 | 0.00 | 0.05 | 0.05 | 54 | 1014.2 |
| 20260503015759 | 50 | 82 | 1.0 | 2.0 | 0.00 | 0.05 | 0.05 | 54 | 1014.0 |
| 20260503015256 | 50 | 84 | 1.0 | 1.0 | 0.00 | 0.05 | 0.05 | 53 | 1014.5 |
| 20260503014751 | 50 | 97 | 1.0 | 1.0 | 0.00 | 0.05 | 0.05 | 53 | 1014.3 |
| 20260503014249 | 51 | 92 | 1.0 | 2.0 | 0.00 | 0.05 | 0.05 | 52 | 1014.4 |
| 20260503013747 | 51 | 90 | 0.0 | 2.0 | 0.00 | 0.05 | 0.05 | 52 | 1014.0 |
| 20260503013244 | 51 | 86 | 0.0 | 2.0 | 0.00 | 0.05 | 0.05 | 51 | 1014.3 |
| 20260503012741 | 51 | 93 | 1.0 | 2.0 | 0.00 | 0.05 | 0.05 | 51 | 1014.3 |
| 20260503012238 | 51 | 69 | 1.0 | 2.0 | 0.00 | 0.05 | 0.05 | 50 | 1014.1 |
| 20260503011735 | 51 | 77 | 2.0 | 3.0 | 0.00 | 0.05 | 0.05 | 50 | 1014.1 |
| 20260503011232 | 51 | 58 | 2.0 | 6.0 | 0.00 | 0.05 | 0.05 | 49 | 1014.1 |
| 20260503010728 | 52 | 68 | 3.0 | 3.0 | 0.00 | 0.05 | 0.05 | 48 | 1014.0 |
| 20260503010225 | 52 | 70 | 3.0 | 6.0 | 0.00 | 0.05 | 0.05 | 47 | 1013.9 |
| 20260503005723 | 52 | 46 | 3.0 | 3.0 | 0.00 | 0.05 | 0.05 | 47 | 1014.0 |
| 20260503005220 | 52 | 86 | 1.0 | 3.0 | 0.00 | 0.05 | 0.05 | 48 | 1013.9 |
| 20260503004716 | 52 | 56 | 1.0 | 2.0 | 0.00 | 0.05 | 0.05 | 47 | 1013.8 |
| 20260503004214 | 52 | 44 | 1.0 | 3.0 | 0.00 | 0.05 | 0.05 | 46 | 1013.7 |
| 20260503003711 | 52 | 52 | 1.0 | 2.0 | 0.00 | 0.05 | 0.05 | 47 | 1013.8 |
| 20260503003208 | 52 | 37 | 3.0 | 5.0 | 0.00 | 0.05 | 0.05 | 47 | 1013.6 |
| 20260503002705 | 52 | 58 | 1.0 | 3.0 | 0.00 | 0.05 | 0.05 | 46 | 1013.7 |
| 20260503002202 | 52 | 39 | 3.0 | 3.0 | 0.00 | 0.05 | 0.05 | 47 | 1013.7 |
| 20260503001657 | 53 | 62 | 0.0 | 1.0 | 0.00 | 0.05 | 0.05 | 47 | 1013.6 |
| 20260503001154 | 53 | 86 | 1.0 | 1.0 | 0.00 | 0.05 | 0.05 | 47 | 1013.6 |
| 20260503000652 | 52 | 70 | 0.0 | 2.0 | 0.00 | 0.05 | 0.05 | 48 | 1013.6 |
| 20260503000149 | 53 | 3 | 2.0 | 2.0 | 0.00 | 0.05 | 0.05 | 48 | 1013.6 |
| 20260502235646 | 53 | 91 | 0.0 | 3.0 | 0.00 | 0.05 | 0.05 | 47 | 1013.5 |
| 20260502235144 | 53 | 52 | 1.0 | 5.0 | 0.00 | 0.05 | 0.05 | 47 | 1013.4 |
| 20260502234639 | 53 | 92 | 1.0 | 1.0 | 0.00 | 0.05 | 0.05 | 48 | 1013.7 |
| 20260502234137 | 54 | 96 | 0.0 | 1.0 | 0.00 | 0.05 | 0.05 | 46 | 1013.2 |